Stündliche Wetter Celinnoe

Heute, 16 Januar, Samstag

Zeit Temperatur Niederschläge Wind Luftdruck Luftfeuchtigkeit
00:00 -22°C° 0 mm 1 m/S 756 mmHg 91%
01:00 -21°C° 0 mm 1 m/S 756 mmHg 90%
02:00 -21°C° 0 mm 1 m/S 755 mmHg 90%
03:00 -21°C° 0 mm 1 m/S 755 mmHg 89%
04:00 -21°C° 0 mm 1 m/S 754 mmHg 89%
05:00 -20°C° 0 mm 1 m/S 754 mmHg 89%
06:00 -20°C° 0 mm 1 m/S 753 mmHg 90%
07:00 -19°C° 0 mm 1 m/S 753 mmHg 89%
08:00 -21°C° 0 mm 2 m/S 752 mmHg 89%
09:00 -20°C° 0 mm 2 m/S 752 mmHg 88%
10:00 -19°C° 0 mm 2 m/S 751 mmHg 86%
11:00 -18°C° 0 mm 2 m/S 750 mmHg 84%
12:00 -14°C° 0 mm 1 m/S 750 mmHg 82%
13:00 -16°C° 0 mm 2 m/S 749 mmHg 83%
14:00 -15°C° 0 mm 2 m/S 748 mmHg 83%
15:00 -14°C° 0 mm 2 m/S 748 mmHg 83%
16:00 -14°C° 0 mm 2 m/S 747 mmHg 81%
17:00 -14°C° 0 mm 2 m/S 746 mmHg 79%
18:00 -14°C° 0 mm 2 m/S 746 mmHg 77%
19:00 -14°C° 0 mm 2 m/S 745 mmHg 76%
20:00 -13°C° 0 mm 2 m/S 744 mmHg 74%
21:00 -13°C° 0 mm 2 m/S 743 mmHg 73%
22:00 -12°C° 0 mm 2 m/S 742 mmHg 72%
23:00 -12°C° 0 mm 2 m/S 741 mmHg 71%

Morgen, 17 Januar, Sonntag

Zeit Temperatur Niederschläge Wind Luftdruck Luftfeuchtigkeit
00:00 -12°C° 0 mm 2 m/S 740 mmHg 70%
01:00 -12°C° 0 mm 2 m/S 740 mmHg 71%
02:00 -12°C° 0 mm 2 m/S 739 mmHg 72%
03:00 -12°C° 0 mm 3 m/S 738 mmHg 72%
04:00 -12°C° 0 mm 2 m/S 737 mmHg 72%
05:00 -12°C° 0 mm 2 m/S 736 mmHg 73%
06:00 -12°C° 0 mm 2 m/S 736 mmHg 73%
07:00 -13°C° 0 mm 2 m/S 735 mmHg 75%
08:00 -14°C° 0 mm 2 m/S 735 mmHg 77%
09:00 -15°C° 0 mm 2 m/S 734 mmHg 79%
10:00 -15°C° 0 mm 3 m/S 734 mmHg 77%
11:00 -14°C° 0 mm 4 m/S 734 mmHg 75%
12:00 -12°C° 0 mm 4 m/S 734 mmHg 73%
13:00 -12°C° 0 mm 5 m/S 735 mmHg 75%
14:00 -11°C° 0 mm 5 m/S 735 mmHg 77%
15:00 -10°C° 0 mm 6 m/S 736 mmHg 78%
16:00 -11°C° 0 mm 6 m/S 737 mmHg 81%
17:00 -11°C° 0 mm 6 m/S 738 mmHg 84%
18:00 -11°C° 0 mm 6 m/S 739 mmHg 87%
19:00 -12°C° 0 mm 6 m/S 739 mmHg 88%
20:00 -12°C° 0 mm 6 m/S 740 mmHg 89%
21:00 -13°C° 0 mm 5 m/S 740 mmHg 90%
22:00 -14°C° 0 mm 5 m/S 740 mmHg 90%
23:00 -14°C° 0 mm 4 m/S 739 mmHg 91%

übermorgen, 18 Januar, Montag

Zeit Temperatur Niederschläge Wind Luftdruck Luftfeuchtigkeit
00:00 -14°C° 0 mm 3 m/S 739 mmHg 92%
01:00 -15°C° 0 mm 3 m/S 739 mmHg 90%
02:00 -15°C° 0 mm 3 m/S 738 mmHg 89%
03:00 -16°C° 0 mm 3 m/S 737 mmHg 87%
04:00 -16°C° 0 mm 3 m/S 737 mmHg 86%
05:00 -14°C° 0 mm 2 m/S 736 mmHg 85%
06:00 -13°C° 0 mm 2 m/S 735 mmHg 85%
07:00 -14°C° 0 mm 3 m/S 735 mmHg 84%
08:00 -14°C° 0 mm 3 m/S 734 mmHg 83%
09:00 -15°C° 0 mm 4 m/S 734 mmHg 82%
10:00 -14°C° 0 mm 4 m/S 734 mmHg 83%
11:00 -13°C° 0 mm 5 m/S 734 mmHg 83%
12:00 -12°C° 0 mm 5 m/S 735 mmHg 84%
13:00 -12°C° 0 mm 5 m/S 735 mmHg 86%
14:00 -12°C° 0 mm 4 m/S 735 mmHg 89%
15:00 -12°C° 0 mm 4 m/S 735 mmHg 91%
16:00 -14°C° 0 mm 4 m/S 736 mmHg 92%
17:00 -14°C° 0 mm 3 m/S 737 mmHg 94%
18:00 -15°C° 0 mm 3 m/S 738 mmHg 95%
19:00 -16°C° 0 mm 3 m/S 738 mmHg 96%
20:00 -17°C° 0 mm 3 m/S 739 mmHg 96%
21:00 -18°C° 0 mm 3 m/S 739 mmHg 97%
22:00 -19°C° 0 mm 3 m/S 740 mmHg 97%
23:00 -19°C° 0 mm 2 m/S 740 mmHg 97%

19 Januar, Dienstag

Zeit Temperatur Niederschläge Wind Luftdruck Luftfeuchtigkeit
00:00 -20°C° 0 mm 2 m/S 740 mmHg 98%
01:00 -20°C° 0 mm 2 m/S 740 mmHg 98%
02:00 -21°C° 0 mm 2 m/S 740 mmHg 98%
03:00 -19°C° 0 mm 1 m/S 741 mmHg 98%
04:00 -19°C° 0 mm 1 m/S 740 mmHg 97%
05:00 -18°C° 0 mm 1 m/S 740 mmHg 97%
06:00 -18°C° 0 mm 1 m/S 740 mmHg 96%
07:00 -18°C° 0 mm 1 m/S 740 mmHg 96%
08:00 -17°C° 0 mm 1 m/S 740 mmHg 96%
09:00 -17°C° 0 mm 1 m/S 739 mmHg 96%
10:00 -16°C° 0 mm 1 m/S 739 mmHg 96%
11:00 -16°C° 0 mm 2 m/S 739 mmHg 95%
12:00 -15°C° 0 mm 2 m/S 739 mmHg 94%
13:00 -14°C° 0 mm 2 m/S 739 mmHg 94%
14:00 -13°C° 0 mm 2 m/S 738 mmHg 94%
15:00 -12°C° 0 mm 2 m/S 738 mmHg 94%
16:00 -13°C° 0 mm 2 m/S 738 mmHg 93%
17:00 -14°C° 0 mm 2 m/S 738 mmHg 92%
18:00 -14°C° 0 mm 2 m/S 738 mmHg 91%
19:00 -14°C° 0 mm 2 m/S 738 mmHg 90%
20:00 -13°C° 0 mm 2 m/S 738 mmHg 88%
21:00 -12°C° 0 mm 2 m/S 738 mmHg 87%
22:00 -12°C° 0 mm 2 m/S 738 mmHg 86%
23:00 -13°C° 0 mm 2 m/S 738 mmHg 84%

20 Januar, Mittwoch

Zeit Temperatur Niederschläge Wind Luftdruck Luftfeuchtigkeit
00:00 -12°C° 0 mm 1 m/S 737 mmHg 83%
01:00 -12°C° 0 mm 1 m/S 737 mmHg 82%
02:00 -12°C° 0 mm 1 m/S 737 mmHg 81%
03:00 -12°C° 0 mm 1 m/S 736 mmHg 79%
04:00 -10°C° 0 mm 1 m/S 736 mmHg 81%
05:00 -9°C° 0 mm 1 m/S 735 mmHg 82%
06:00 -8°C° 0 mm 1 m/S 735 mmHg 84%
07:00 -8°C° 0 mm 1 m/S 734 mmHg 84%
08:00 -7°C° 0 mm 1 m/S 734 mmHg 85%
09:00 -7°C° 0 mm 1 m/S 733 mmHg 86%
10:00 -6°C° 0.1 mm 2 m/S 733 mmHg 87%
11:00 -6°C° 0.1 mm 3 m/S 733 mmHg 88%
12:00 -5°C° 0.1 mm 3 m/S 733 mmHg 89%
13:00 -5°C° 0.4 mm 5 m/S 733 mmHg 91%
14:00 -4°C° 0.4 mm 7 m/S 733 mmHg 93%
15:00 -4°C° 0.4 mm 8 m/S 732 mmHg 95%
16:00 -4°C° 0.8 mm 9 m/S 733 mmHg 94%
17:00 -4°C° 0.8 mm 9 m/S 733 mmHg 92%
18:00 -5°C° 0.8 mm 10 m/S 734 mmHg 91%
19:00 -5°C° 0.1 mm 10 m/S 734 mmHg 91%
20:00 -5°C° 0.1 mm 9 m/S 735 mmHg 91%
21:00 -5°C° 0.1 mm 9 m/S 736 mmHg 91%
22:00 -6°C° 0 mm 9 m/S 736 mmHg 89%
23:00 -8°C° 0 mm 8 m/S 737 mmHg 88%

21 Januar, Donnerstag

Zeit Temperatur Niederschläge Wind Luftdruck Luftfeuchtigkeit
00:00 -9°C° 0 mm 7 m/S 738 mmHg 86%
01:00 -10°C° 0 mm 6 m/S 738 mmHg 87%
02:00 -12°C° 0 mm 5 m/S 738 mmHg 88%
03:00 -12°C° 0 mm 4 m/S 738 mmHg 89%
04:00 -13°C° 0 mm 3 m/S 738 mmHg 91%
05:00 -13°C° 0 mm 3 m/S 738 mmHg 92%
06:00 -12°C° 0 mm 2 m/S 738 mmHg 93%
07:00 -12°C° 0 mm 2 m/S 738 mmHg 94%
08:00 -12°C° 0 mm 2 m/S 738 mmHg 94%
09:00 -10°C° 0 mm 1 m/S 737 mmHg 95%
10:00 -12°C° 0.1 mm 2 m/S 736 mmHg 95%
11:00 -10°C° 0.1 mm 2 m/S 735 mmHg 94%
12:00 -10°C° 0.1 mm 2 m/S 734 mmHg 94%
13:00 -10°C° 0.4 mm 2 m/S 733 mmHg 94%
14:00 -12°C° 0.4 mm 3 m/S 731 mmHg 95%
15:00 -12°C° 0.4 mm 3 m/S 730 mmHg 95%
16:00 -12°C° 1 mm 3 m/S 729 mmHg 95%
17:00 -12°C° 1 mm 4 m/S 729 mmHg 95%
18:00 -14°C° 1 mm 4 m/S 728 mmHg 95%
19:00 -14°C° 0.6 mm 4 m/S 728 mmHg 95%
20:00 -15°C° 0.6 mm 4 m/S 728 mmHg 95%
21:00 -15°C° 0.6 mm 4 m/S 729 mmHg 95%
22:00 -18°C° 0.4 mm 5 m/S 730 mmHg 95%
23:00 -19°C° 0.4 mm 5 m/S 732 mmHg 95%
Mehr zeigen

Wir brauchen deine Erlaubnis

Meteoprog und unser Service Anbieter werden persönliche Daten aufbewahren, so wie Cookies, Geräte Bezeichnung oder ähnliche Technologien von deinem Gerät und Prozess, so wie Persönliche Daten Inhalte und Werbungen, genauso wie social Media und den Verkehr zu analysieren.

  • Aufbewahrung und/oder Zugang zu deiner Geräte Informationen.

    Cookies, Geräte Bezeichnung oder andere Informationen, können aufbewahrt oder Zugang zu deinem Gerät erhalten, für den Grund, der oben angegeben wird.

  • Personalisierte Werbung und Inhalte, Messungen, Einblick in das Publikum und Produkt Entwicklung.

    Werbungen und Inhalte können personalisiert werden, basierend auf ein Profil. Mehr Daten können besser personalisierte Werbungen und Inhalte hinzufügen. Werbung und Inhalte können gezeigt und gemessen werden. Einblicke über das Publikum, welche die Werbung gesehen haben und den Inhalt, können abgeleitet werden. So wie Daten können genutzt werden, um es zu verbessern oder die Benutzer Erfahrung zu verbessern das System und die Software.

Wenn du “Ich stimme zu” klickst, erlaubst du uns, die Cookies zu benutzen die Geräte Bezeichnung, den Web oder ähnliche Technologien zu benutzen. Deine Settings, können in deinem Gerät bei deinem Browser geändert werden.

Für den bestimmten Zweck, berechtigten Interessen beruhen darauf, mehr als auf den Inhalt. Du kannst mehr darüber in unseren Privaten und Cookie Politik lesen.